Back to catalog

STARLINK-37390

AliveCommunicationsSSO
NORAD 68782·PAYLOAD·🇺🇸 United States

Launched Apr 19, 2026 from Vandenberg Space Force Base

Loading…

Next Passes (next 24 hours)

TLE

FreshSource: CelesTrak SupGP

Epoch: Sep 14, 2026, 22:45 UTC

1 68782C 26086S   26257.94840278  .00046277  00000+0  14367-2 0  2572
2 68782  97.2842 293.4878 0001128  92.0220   3.3179 15.33411568    14

Track STARLINK-37390 in real time with AllMySat

Download on the App Store